TimeCET,TemperatureF,Dew PointF,Humidity,Sea Level PressureIn,VisibilityMPH,Wind Direction,Wind SpeedMPH,Gust SpeedMPH,PrecipitationIn,Events,Conditions,WindDirDegrees,DateUTC
12:55 AM,32.0,30.2,93,30.24,-9999.0,NE,3.5,-,N/A,,Clear,40,2013-11-15 23:55:00
1:55 AM,32.0,30.2,93,30.24,-9999.0,NNE,4.6,-,N/A,,Clear,20,2013-11-16 00:55:00
3:55 AM,32.0,30.2,93,30.24,-9999.0,North,4.6,-,N/A,,Clear,10,2013-11-16 02:55:00
4:55 AM,32.0,30.2,93,30.24,-9999.0,North,3.5,-,N/A,,Clear,10,2013-11-16 03:55:00
5:55 AM,32.0,30.2,93,30.24,-9999.0,Calm,Calm,-,N/A,,Clear,0,2013-11-16 04:55:00
6:55 AM,32.0,28.4,87,30.24,-9999.0,NNE,4.6,-,N/A,,Clear,20,2013-11-16 05:55:00
7:55 AM,32.0,28.4,87,30.24,-9999.0,North,4.6,-,N/A,,Clear,10,2013-11-16 06:55:00
8:55 AM,32.0,28.4,87,30.24,-9999.0,North,6.9,-,N/A,,Clear,10,2013-11-16 07:55:00
9:55 AM,39.2,30.2,70,30.24,-9999.0,North,5.8,-,N/A,,Clear,350,2013-11-16 08:55:00
10:55 AM,42.8,30.2,61,30.24,-9999.0,NNW,6.9,-,N/A,,Clear,340,2013-11-16 09:55:00
11:55 AM,42.8,30.2,61,30.24,-9999.0,North,8.1,-,N/A,,Clear,350,2013-11-16 10:55:00
12:55 PM,46.4,30.2,53,30.21,-9999.0,NNW,9.2,-,N/A,,Clear,340,2013-11-16 11:55:00
1:55 PM,46.4,30.2,53,30.21,-9999.0,North,8.1,-,N/A,,Clear,350,2013-11-16 12:55:00
2:55 PM,46.4,30.2,53,30.21,-9999.0,NNW,5.8,-,N/A,,Clear,330,2013-11-16 13:55:00
3:55 PM,42.8,33.8,70,30.18,-9999.0,NNE,4.6,-,N/A,,Clear,20,2013-11-16 14:55:00
4:55 PM,39.2,32.0,75,30.18,-9999.0,NNE,4.6,-,N/A,,Clear,20,2013-11-16 15:55:00
5:55 PM,37.4,32.0,81,30.21,-9999.0,NNE,3.5,-,N/A,,Clear,30,2013-11-16 16:55:00
6:55 PM,35.6,32.0,87,30.21,-9999.0,North,3.5,-,N/A,,Clear,10,2013-11-16 17:55:00
7:55 PM,33.8,32.0,93,30.21,-9999.0,Calm,Calm,-,N/A,,Clear,0,2013-11-16 18:55:00
8:55 PM,33.8,30.2,87,30.21,-9999.0,Calm,Calm,-,N/A,,Clear,0,2013-11-16 19:55:00
9:55 PM,33.8,30.2,87,30.21,-9999.0,Calm,Calm,-,N/A,,Clear,0,2013-11-16 20:55:00
10:55 PM,33.8,30.2,87,30.21,-9999.0,Calm,Calm,-,N/A,,Clear,0,2013-11-16 21:55:00
11:55 PM,32.0,30.2,93,30.21,-9999.0,Calm,Calm,-,N/A,,Clear,0,2013-11-16 22:55:00